www.pogodaiklimat.ru

Погода и климат >> Архив погоды >> Россия >> Приморский край >> Находка


АРХИВ ПОГОДЫ в Находке

Время (UTC), дата Ветер
(напр.,м/с)
 
Видим.   Явления Облачность Т
(С)
Тd
(С)
f
(%)
Тe
(С)
Тes
(С)
Комфортность P
(гПа)
Po
(гПа)
Тmin
(С)
Tmax
(С)
R
(мм)
R24
(мм)
S
(см)
12 16.07 ЮВ 2 20 км 4/0
[Ac trans]
+16.8 +15.4 91 +17 +17 по сезону 1013.9 1007.4
15 16.07 ЮЗ 1 20 км 8/0
[Ac trans]
+15.9 +15.4 97 +17 +17 по сезону 1014.6 1008.0
18 16.07 СВ 1 20 км 10 баллов +15.3 +14.8 97 +16 +16 по сезону 1014.7 1008.0
21 16.07 штиль 0 20 км 10/10 600 м
[Sc]
+16.1 +15.6 97 +16 +16 по сезону 1013.6 1007.1 +15.3
00 17.07 В 1 20 км 10/10 600 м
[Sc]
+18.7 +16.4 86 +21 +21 комфорт 1013.0 1006.6
03 17.07 ЮВ 1 50 км 8/8 1000 м
[Sc]
+20.4 +16.2 77 +24 +31 комфорт 1013.2 1006.7
06 17.07 ЮЗ 1 50 км 10 баллов +20.6 +16.6 78 +25 +25 комфорт 1013.2 1006.7
09 17.07 ЮЗ 2 2000 м морось 10/10 600 м
[St]
+18.0 +17.5 97 +19 +19 тепло 1011.8 1005.3 +21.3 0.1
12 17.07 В 1 4000 м дымка 10/10 600 м
[St]
+17.3 +17.2 99 +18 +18 тепло 1012.0 1005.5
15 17.07 штиль 0 2000 м слаб. морось 10/10 600 м
[St]
+17.8 +17.8 100 +18 +18 тепло 1013.3 1006.7
18 17.07 штиль 0 2000 м слаб. морось 10 баллов +17.8 +18.0 101 +18 +18 тепло 1011.9 1005.3
21 17.07 штиль 0 500 м слаб. дождь {морось} туман ?/? +18.4 +18.5 100 +19 +19 тепло 1011.0 1004.5 +17.3 4
00 18.07 Ю 1 2000 м морось {дождь} 10/10 600 м
[St]
+18.8 +18.9 100 +21 +21 комфорт 1010.5 1004.1
03 18.07 Ю 1 4000 м слаб. морось 10/10 600 м
[St]
+19.9 +20.1 101 +24 +24 комфорт 1011.8 1005.3
06 18.07 Ю 2 2000 м морось 10 баллов +19.5 +19.7 101 +23 +23 комфорт 1010.5 1004.0
09 18.07 ЮЗ 2 2000 м морось 10/10 600 м
[St]
+19.4 +19.6 101 +22 +22 комфорт 1009.2 1002.7 +20.0 4
12 18.07 СВ 1 2000 м слаб. ливневой дождь {морось} 10/10 600 м
[Cb cap]
+18.7 +18.8 100 +21 +21 комфорт 1008.9 1002.5
15 18.07 штиль 0 500 м слаб. ливневой дождь {туман} туман ?/? +18.7 +18.9 101 +20 +20 тепло 1009.2 1002.7
18 18.07 штиль 0 200 м туман н/о +18.7 +18.9 101 +20 1009.2 1002.7
21 18.07 штиль 0 200 м туман ?/? +19.0 +19.2 100 +21 +21 комфорт 1008.5 1002.1 +18.5 2
00 19.07 В 1 500 м туман ?/? +20.1 +20.3 100 +25 +25 комфорт 1009.1 1002.7
03 19.07 ЮВ 1 10 км {туман} 10/10 600 м
[Cb cap]
+22.8 +21.4 92 +30 +30 очень
душно
1010.4 1004.0
06 19.07 В 1 10 км 7 баллов +25.0 +20.7 77 +31 +35 очень
душно
1009.1 1002.7
09 19.07 ЮЗ 2 4000 м дымка 10/10 600 м
[Sc]
+21.0 +20.0 94 +27 +27 душно 1010.5 1004.0 +26.4
12 19.07 штиль 0 2000 м слаб. морось 10/10 600 м
[St]
+20.7 +20.4 98 +25 +25 комфорт 1010.7 1004.3
15 19.07 штиль 0 2000 м дымка 10/10 600 м
[St]
+20.1 +20.1 100 +24 +24 комфорт 1011.8 1005.3
18 19.07 штиль 0 2000 м дымка 10 баллов +20.1 +20.3 101 +24 +24 комфорт 1011.8 1005.3
21 19.07 СВ 1 4000 м дымка 10/10 600 м
[Sc]
+20.3 +20.4 100 +26 +26 душно 1011.6 1005.2 +20.1 0.1
00 20.07 Ю 2 10 км 10/10 600 м
[Sc]
+21.4 +20.3 93 +27 +27 душно 1012.6 1006.2
03 20.07 Ю 2 20 км 10/10 600 м
[Sc]
+22.4 +19.7 85 +28 +28 душно 1014.5 1008.0
06 20.07 В 1 50 км 7 баллов +23.8 +19.5 77 +29 +33 душно 1013.1 1006.7
09 20.07 В 1 20 км 10/10 600 м
[Cb cap]
+22.0 +20.6 92 +28 +28 душно 1013.2 1006.7 +25.5
12 20.07 ЮВ 1 20 км в посл. час ливневой дождь 10/10 600 м
[Cb cap]
+21.1 +20.9 99 +26 +26 душно 1013.1 1006.7
15 20.07 В 1 20 км 10/10 600 м
[Cb cap]
+21.2 +21.2 100 +27 +27 душно 1013.2 1006.7
18 20.07 ЮВ 3 10 км 10 баллов +21.8 +21.6 99 +28 +28 душно 1013.2 1006.7
21 20.07 В 2 20 км 10/8 600 м
[Cb cap Ac trans]
+21.4 +21.2 99 +27 +27 душно 1011.7 1005.4 +20.4 0.0
00 21.07 В 3 50 км 8/3 600 м
[Cu med, cong Ac trans]
+24.2 +22.2 89 +31 +35 очень
душно
1011.0 1004.7
03 21.07 В 4-12
{13}
50 км 9/9 1000 м
[Cb cap]
+22.9 +21.3 91 +30 +32 очень
душно
1010.6 1004.3
06 21.07 ЮВ 4-12
{16}
50 км {ливн. осадки} 10/10 600 м
[Cb cap]
+21.3 +20.8 97 +27 +27 душно 1009.1 1002.7
09 21.07 В 5-11
{12}
4000 м ливневой дождь 10/10 600 м
[Cb cap]
+20.7 +20.7 100 +26 +26 душно 1007.8 1001.3 +24.7 6
12 21.07 В 4-14
{15}
20 км слаб. ливневой дождь 10/10 600 м
[Cb cap]
+20.6 +20.3 98 +25 +25 комфорт 1005.6 999.3
15 21.07 В 6-16
{16}
20 км слаб. ливневой дождь 10/10 600 м
[Cb cap]
+20.4 +19.9 97 +24 +24 комфорт 1002.7 996.3
18 21.07 ЮВ 7-16
{17}
10 км ливневой дождь 10/10 600 м
[Cb cap]
+19.8 +19.7 99 +22 +22 комфорт 999.6 993.3
21 21.07 ЮВ 4
{16}
2000 м слаб. ливневой дождь 10/10 600 м
[Cb cap]
+19.1 +19.1 100 +21 +21 комфорт 998.9 992.5 +19.0 26
00 22.07 ЮВ 2
{10}
10 км слаб. ливневой дождь 10/10 600 м
[Cb cap]
+19.2 +19.4 100 +22 +22 комфорт 999.2 992.8
03 22.07 ЮВ 3 20 км 10 баллов +20.8 +20.5 98 +26 +26 душно 999.7 993.3
06 22.07 В 2 10 км в посл. час ливневой дождь 10 баллов +20.7 +20.4 98 +26 +26 душно 999.7 993.3
09 22.07 штиль 0 20 км 10/10 600 м
[Cb cap]
+21.4 +20.6 95 +27 +27 душно 998.9 992.6 +21.5 4
12 22.07 ЮЗ 1 20 км 10 баллов +20.2 +19.9 98 +25 +25 комфорт 1001.1 994.7
15 22.07 З 2 20 км в посл. час ливневой дождь 10 баллов +18.6 +18.6 100 +20 +20 тепло 1002.5 996.0
18 22.07 штиль 0 10 км 10 баллов +18.3 +18.5 101 +19 +19 тепло 1002.5 996.0
21 22.07 штиль 0 2000 м дымка 10/10 600 м
[St]
+18.5 +18.6 100 +19 +19 тепло 1002.1 995.7 +18.0 0.1
00 23.07 ЮЗ 1 500 м туман ?/? +18.4 +18.6 100 +20 +20 тепло 1002.8 996.4 +17.7
03 23.07 Ю 1 4000 м дымка 10 баллов +22.1 +20.6 91 +28 +28 душно 1003.7 997.3
06 23.07 Ю 2 10 км 2 балла +25.3 +21.2 78 +32 +42 очень
душно
1002.3 996.0

 

Местоположение метеостанции Находка (Приморский край, Россия): широта 42.80 долгота 132.80 высота над уровнем моря 56 м.

В архиве по умолчанию представлена погода в Находке за последнюю неделю. Архивные данные за месяц целиком и за предыдущие месяцы, начиная с января 2011 года, Вы можете получить, выбрав интересующий диапазон дат из раскрывающегося списка и нажав кнопку "Ввод!".


*Определитесь, кто Вы:
робот инопланетянин человек

Внимание! Время в таблицах - всемирное. Для получения местного времени необходимо прибавить поправку, которая равна 10 ч.

Смотрите также архив погоды в соседних городах и на ближайших метеорологических станциях:

Погода в Партизанске (Приморский край, Россия) (42 км)
Погода на Мысе Назимова (Приморский край, Россия) (78 км)
Погода в Многоудобном (Приморский край, Россия) (79 км)
Погода в Владивостоке (Приморский край, Россия) (81 км)
Погода в Преображении (Приморский край, Россия) (90 км)
Погода в Лазо (Приморский край, Россия) (105 км)
Погода в Барабаше (Приморский край, Россия) (122 км)
Погода в Анучино (Приморский край, Россия) (131 км)
Погода в Гамове (Приморский край, Россия) (132 км)
Погода в Тимирязевском (Приморский край, Россия) (140 км)

Пояснения к столбцам:

Ветер - указаны скорость ветра в м/с - средняя за 10 мин, порывы в срок и между сроками (в фигурных скобках) и направление, откуда дует ветер: С - северный, СВ - северо-восточный, В - восточный, ЮВ - юго-восточный, Ю - южный, ЮЗ - юго-западный, З - западный, СЗ - северо-западный.
Видимость - горизонтальная дальность видимости в метрах или километрах. При видимости от 1 до 10 км при отсутствии осадков обычно наблюдается дымка, при ухудшении видимости до 1 км и менее - туман. В сухую погоду видимость может ухудшаться дымом, пылью или мглою.
Явления - указаны атмосферные явления, наблюдавшиеся в срок или в последний час перед сроком; фигурными скобками обозначены явления, наблюдавшиеся между сроками (за 1-3 часа до срока); квадратными скобками обозначены град или гололедные отложения с указанием их диаметра в мм.
Облачность - указаны через наклонную черту общая и нижняя облачность в баллах и высота нижней границы облаков в метрах; квадратными скобками обозначены формы облаков: Ci - перистые, Cs - перисто-слоистые, Cc - перисто-кучевые, Ac - высококучевые, As - высокослоистые, Sc - слоисто-кучевые, Ns - слоисто-дождевые, Cu - кучевые, Cb - кучево-дождевые. Подробнее классификацию облаков см. в Атласе облаков (PDF).
T - Температура воздуха - температура, измеренная на высоте 2 м над землей.
Td - Температура точки росы - температура, при понижении до которой содержащийся в воздухе водяной пар достигнет насыщения.
f - Относительная влажность воздуха - влажноcть воздуха, измеренная на высоте 2 м над землей.
Te - Эффективная температура - температура, которую ощущает одетый по сезону человек в тени. Характеристика душности погоды. При расчете учитывается влияние влажности воздуха и скорости ветра на теплоощущения человека.
Tes - Эффективная температура на солнце - температура, которую ощущает человек, с поправкой на солнечный нагрев. Характеристика знойности погоды. Зависит от высоты солнца над горизонтом, облачности и скорости ветра. Ночью, в пасмурную погоду, а также при ветре 12 м/с и более поправка равна нулю.
P - Атмосферное давление - приведенное к уровню моря атмосферное давление.
Po - Атмосферное давление - измеренное на уровне метеостанции атмосферное давление.
Tmin - Минимальная температура - минимум температуры воздуха на высоте 2 м над землей.
Tmax - Максимальная температура - максимум температуры воздуха на высоте 2 м над землей.
R - Количество осадков - Количество выпавших осадков за период времени, мм. При наведении курсора мыши на число - период времени, за который выпало указанное количество осадков.
R24 - Количество осадков - Количество выпавших осадков за 24 часа, мм.
S - Снежный покров - Высота снежного покрова, см. При наведении курсора мыши на число - состояние снежного покрова и степень покрытия местности в баллах.